| time (UTC) | temp C | wind direction | speed KPH | gust KPH | rain 1hr cm | rain 24hr cm | rain mn cm | humidity % | barometer mb |
| 20260504003034 | 24 | 217 | 0.0 | 1.6 | 0.00 | 0.00 | 0.00 | 61 | 1008.6 |
| 20260504001530 | 24 | 242 | 1.6 | 4.8 | 0.00 | 0.00 | 0.00 | 62 | 1008.7 |
| 20260504000038 | 25 | 360 | 3.2 | 11.3 | 0.00 | 0.00 | 0.00 | 58 | 1008.8 |
| 20260503234532 | 25 | 210 | 1.6 | 6.4 | 0.00 | 0.00 | 0.00 | 57 | 1008.9 |
| 20260503233027 | 26 | 219 | 1.6 | 6.4 | 0.00 | 0.00 | 0.00 | 55 | 1009.0 |
| 20260503231539 | 27 | 245 | 0.0 | 4.8 | 0.00 | 0.00 | 0.00 | 56 | 1009.1 |
| 20260503230032 | 27 | 360 | 3.2 | 8.0 | 0.00 | 0.00 | 0.00 | 55 | 1009.4 |
| 20260503224546 | 27 | 275 | 4.8 | 11.3 | 0.00 | 0.00 | 0.00 | 53 | 1009.5 |
| 20260503223043 | 28 | 242 | 4.8 | 8.0 | 0.00 | 0.00 | 0.00 | 52 | 1009.6 |
| 20260503221537 | 30 | 211 | 8.0 | 12.9 | 0.00 | 0.00 | 0.00 | 46 | 1009.7 |
| 20260503220049 | 32 | 202 | 4.8 | 6.4 | 0.00 | 0.00 | 0.00 | 42 | 1009.9 |
| 20260503214542 | -17 | 360 | 3.2 | 6.4 | 0.00 | 0.00 | 0.00 | 39 | 1010.0 |
| 20260503213035 | -17 | 242 | 0.0 | 3.2 | 0.00 | 0.00 | 0.00 | 1010.1 | |
| 20260503211533 | -17 | 67 | 3.2 | 8.0 | 0.00 | 0.00 | 0.00 | 1010.1 | |
| 20260503210042 | -17 | 105 | 3.2 | 9.7 | 0.00 | 0.00 | 0.00 | 1010.4 | |
| 20260503204537 | -17 | 97 | 3.2 | 11.3 | 0.00 | 0.00 | 0.00 | 1010.6 | |
| 20260503203032 | -17 | 62 | 3.2 | 6.4 | 0.00 | 0.00 | 0.00 | 1010.7 | |
| 20260503201527 | -17 | 30 | 3.2 | 9.7 | 0.00 | 0.00 | 0.00 | 1010.9 | |
| 20260503200034 | -17 | 344 | 3.2 | 14.5 | 0.00 | 0.00 | 0.00 | 1011.1 | |
| 20260503194528 | -17 | 106 | 4.8 | 11.3 | 0.00 | 0.00 | 0.00 | 1011.2 | |
| 20260503193027 | -17 | 38 | 1.6 | 8.0 | 0.00 | 0.00 | 0.00 | 1011.4 | |
| 20260503191540 | -17 | 63 | 0.0 | 6.4 | 0.00 | 0.00 | 0.00 | 1011.5 | |
| 20260503190033 | -17 | 216 | 1.6 | 6.4 | 0.00 | 0.00 | 0.00 | 1011.7 | |
| 20260503184528 | -17 | 21 | 0.0 | 0.0 | 0.00 | 0.00 | 0.00 | 1011.8 | |
| 20260503183101 | -17 | 114 | 1.6 | 11.3 | 0.00 | 0.00 | 0.00 | 1012.1 | |
| 20260503181557 | -17 | 118 | 1.6 | 14.5 | 0.00 | 0.00 | 0.00 | 1012.2 | |
| 20260503180044 | -17 | 93 | 4.8 | 8.0 | 0.00 | 0.00 | 0.00 | 1012.3 | |
| 20260503174540 | -17 | 82 | 3.2 | 12.9 | 0.00 | 0.00 | 0.00 | 1012.4 | |
| 20260503173032 | -17 | 80 | 1.6 | 14.5 | 0.00 | 0.00 | 0.00 | 1012.4 | |
| 20260503171529 | -17 | 26 | 0.0 | 3.2 | 0.00 | 0.00 | 0.00 | 1012.5 | |
| 20260503081540 | -17 | 215 | 0.0 | 0.0 | 0.00 | 0.00 | 0.00 | 1013.7 | |
| 20260503071533 | 10 | 215 | 0.0 | 0.0 | 0.00 | 0.00 | 0.00 | 89 | 1013.7 |
| 20260503054537 | -17 | 215 | 0.0 | 0.0 | 0.00 | 0.00 | 0.00 | 89 | 1013.8 |
| 20260503053034 | -17 | 215 | 0.0 | 0.0 | 0.00 | 0.00 | 0.00 | 1013.8 | |
| 20260503051526 | -17 | 215 | 0.0 | 0.0 | 0.00 | 0.00 | 0.00 | 1013.9 | |
| 20260503050032 | -17 | 215 | 0.0 | 0.0 | 0.00 | 0.00 | 0.00 | 1013.8 | |
| 20260503044530 | -17 | 215 | 0.0 | 0.0 | 0.00 | 0.00 | 0.00 | 1013.6 | |
| 20260503043041 | -17 | 215 | 0.0 | 0.0 | 0.00 | 0.00 | 0.00 | 1013.4 | |
| 20260503041537 | 12 | 233 | 0.0 | 1.6 | 0.00 | 0.00 | 0.00 | 88 | 1013.3 |
| 20260503040046 | 12 | 360 | 0.0 | 0.0 | 0.00 | 0.00 | 0.00 | 87 | 1013.1 |
| 20260503034540 | 12 | 360 | 0.0 | 0.0 | 0.00 | 0.00 | 0.00 | 87 | 1012.9 |
| 20260503033038 | 12 | 219 | 0.0 | 9.7 | 0.00 | 0.00 | 0.00 | 87 | 1012.7 |
| 20260503031552 | 12 | 211 | 0.0 | 6.4 | 0.00 | 0.00 | 0.00 | 86 | 1012.7 |
| 20260503030037 | 13 | 215 | 0.0 | 0.0 | 0.00 | 0.00 | 0.00 | 1012.7 | |
| 20260503024536 | -17 | 360 | 4.8 | 9.7 | 0.00 | 0.00 | 0.00 | 85 | 1012.5 |
| 20260503023029 | -17 | 360 | 0.0 | 11.3 | 0.00 | 0.00 | 0.00 | 1012.5 | |
| 20260503021526 | -17 | 246 | 4.8 | 9.7 | 0.00 | 0.00 | 0.00 | 1012.4 | |
| 20260503020035 | -17 | 218 | 3.2 | 8.0 | 0.00 | 0.00 | 0.00 | 100 | 1012.4 |
| 20260503014533 | -17 | 360 | 4.8 | 11.3 | 0.00 | 0.00 | 0.00 | 1012.4 | |
| 20260503013106 | -17 | 246 | 0.0 | 11.3 | 0.00 | 0.00 | 0.00 | 1012.4 | |
| 20260503011537 | -17 | 244 | 0.0 | 12.9 | 0.00 | 0.00 | 0.00 | 1012.4 | |
| 20260503010050 | 70 | 360 | 8.0 | 14.5 | 0.00 | 0.00 | 0.00 | 1012.4 | |
| 20260503004541 | 17 | 219 | 1.6 | 8.0 | 0.00 | 0.00 | 0.00 | 1012.4 |